Wetterdaten: Donnerstag, 20.05.2010
Datum Zeit Temp. A. Feuchte A. Luftdruck Regen Wind Richtung Richtung Sonnenschein UV Solar Windben
20.05.2010 00:00 11,4 C 62 % 1025,0 hPa 0,0 mm 1,6 km/h (1 Bft) W 270 0 min 0 UV-I 0 W/m 8,0 km/h (2 Bft)
20.05.2010 00:10 11,4 C 61 % 1025,8 hPa 0,0 mm 1,6 km/h (1 Bft) W 270 0 min 0 UV-I 0 W/m 8,0 km/h (2 Bft)
20.05.2010 00:20 11,4 C 62 % 1025,0 hPa 0,0 mm 1,6 km/h (1 Bft) W 270 0 min 0 UV-I 0 W/m 8,0 km/h (2 Bft)
20.05.2010 00:30 11,3 C 61 % 1025,9 hPa 0,0 mm 1,6 km/h (1 Bft) W 270 0 min 0 UV-I 0 W/m 6,4 km/h (2 Bft)
20.05.2010 00:40 11,3 C 60 % 1025,1 hPa 0,0 mm 1,6 km/h (1 Bft) W 270 0 min 0 UV-I 0 W/m 8,0 km/h (2 Bft)
20.05.2010 00:50 11,2 C 60 % 1025,6 hPa 0,0 mm 3,2 km/h (1 Bft) W 270 0 min 0 UV-I 0 W/m 9,7 km/h (2 Bft)
20.05.2010 01:00 11,2 C 60 % 1026,0 hPa 0,0 mm 1,6 km/h (1 Bft) W 270 0 min 0 UV-I 0 W/m 8,0 km/h (2 Bft)
20.05.2010 01:10 11,1 C 60 % 1026,0 hPa 0,0 mm 3,2 km/h (1 Bft) W 270 0 min 0 UV-I 0 W/m 11,3 km/h (2 Bft)
20.05.2010 01:20 11,1 C 60 % 1026,1 hPa 0,0 mm 3,2 km/h (1 Bft) W 270 0 min 0 UV-I 0 W/m 9,7 km/h (2 Bft)
20.05.2010 01:30 11,0 C 60 % 1026,1 hPa 0,0 mm 3,2 km/h (1 Bft) W 270 0 min 0 UV-I 0 W/m 14,5 km/h (3 Bft)
20.05.2010 01:40 11,0 C 60 % 1026,1 hPa 0,0 mm 3,2 km/h (1 Bft) W 270 0 min 0 UV-I 0 W/m 11,3 km/h (2 Bft)
20.05.2010 01:50 10,9 C 61 % 1026,1 hPa 0,0 mm 3,2 km/h (1 Bft) W 270 0 min 0 UV-I 0 W/m 11,3 km/h (2 Bft)
20.05.2010 02:00 10,9 C 60 % 1026,1 hPa 0,0 mm 3,2 km/h (1 Bft) W 270 0 min 0 UV-I 0 W/m 9,7 km/h (2 Bft)
20.05.2010 02:10 10,9 C 60 % 1025,9 hPa 0,0 mm 4,8 km/h (1 Bft) W 270 0 min 0 UV-I 0 W/m 20,9 km/h (4 Bft)
20.05.2010 02:20 10,8 C 60 % 1026,0 hPa 0,0 mm 4,8 km/h (1 Bft) W 270 0 min 0 UV-I 0 W/m 12,9 km/h (3 Bft)
20.05.2010 02:30 10,8 C 60 % 1026,1 hPa 0,0 mm 4,8 km/h (1 Bft) W 270 0 min 0 UV-I 0 W/m 14,5 km/h (3 Bft)
20.05.2010 02:40 10,8 C 60 % 1026,1 hPa 0,0 mm 3,2 km/h (1 Bft) W 270 0 min 0 UV-I 0 W/m 11,3 km/h (2 Bft)
20.05.2010 02:50 10,8 C 60 % 1026,1 hPa 0,0 mm 3,2 km/h (1 Bft) W 270 0 min 0 UV-I 0 W/m 14,5 km/h (3 Bft)
20.05.2010 03:00 10,7 C 60 % 1026,0 hPa 0,0 mm 3,2 km/h (1 Bft) W-NW 292 0 min 0 UV-I 0 W/m 11,3 km/h (2 Bft)
20.05.2010 03:10 10,7 C 60 % 1026,0 hPa 0,0 mm 1,6 km/h (1 Bft) W 270 0 min 0 UV-I 0 W/m 11,3 km/h (2 Bft)
20.05.2010 03:20 10,7 C 60 % 1026,0 hPa 0,0 mm 1,6 km/h (1 Bft) W-NW 292 0 min 0 UV-I 0 W/m 8,0 km/h (2 Bft)
20.05.2010 03:30 10,7 C 61 % 1026,0 hPa 0,0 mm 3,2 km/h (1 Bft) W-SW 247 0 min 0 UV-I 0 W/m 14,5 km/h (3 Bft)
20.05.2010 03:40 10,7 C 60 % 1026,0 hPa 0,0 mm 3,2 km/h (1 Bft) W 270 0 min 0 UV-I 0 W/m 14,5 km/h (3 Bft)
20.05.2010 03:50 10,6 C 60 % 1025,9 hPa 0,0 mm 3,2 km/h (1 Bft) W 270 0 min 0 UV-I 0 W/m 9,7 km/h (2 Bft)
20.05.2010 04:00 10,6 C 61 % 1026,0 hPa 0,0 mm 3,2 km/h (1 Bft) W 270 0 min 0 UV-I 0 W/m 11,3 km/h (2 Bft)
20.05.2010 04:10 10,6 C 61 % 1026,1 hPa 0,0 mm 3,2 km/h (1 Bft) W 270 0 min 0 UV-I 0 W/m 9,7 km/h (2 Bft)
20.05.2010 04:20 10,5 C 62 % 1026,0 hPa 0,0 mm 4,8 km/h (1 Bft) W 270 0 min 0 UV-I 0 W/m 11,3 km/h (2 Bft)
20.05.2010 04:30 10,4 C 62 % 1026,0 hPa 0,0 mm 1,6 km/h (1 Bft) W 270 0 min 0 UV-I 0 W/m 11,3 km/h (2 Bft)
20.05.2010 04:40 10,4 C 63 % 1026,2 hPa 0,0 mm 3,2 km/h (1 Bft) W 270 0 min 0 UV-I 0 W/m 11,3 km/h (2 Bft)
20.05.2010 04:50 10,3 C 63 % 1026,3 hPa 0,0 mm 3,2 km/h (1 Bft) W-SW 247 0 min 0 UV-I 0 W/m 9,7 km/h (2 Bft)
20.05.2010 05:00 10,3 C 64 % 1026,1 hPa 0,0 mm 3,2 km/h (1 Bft) W 270 0 min 0 UV-I 0 W/m 9,7 km/h (2 Bft)
20.05.2010 05:10 10,3 C 64 % 1026,1 hPa 0,0 mm 4,8 km/h (1 Bft) W 270 0 min 0 UV-I 0 W/m 9,7 km/h (2 Bft)
20.05.2010 05:20 10,2 C 65 % 1026,2 hPa 0,0 mm 3,2 km/h (1 Bft) W 270 0 min 0 UV-I 0 W/m 9,7 km/h (2 Bft)
20.05.2010 05:30 10,2 C 66 % 1026,2 hPa 0,0 mm 3,2 km/h (1 Bft) W 270 0 min 0 UV-I 0 W/m 11,3 km/h (2 Bft)
20.05.2010 05:40 10,2 C 66 % 1026,2 hPa 0,0 mm 3,2 km/h (1 Bft) W 270 0 min 0 UV-I 0 W/m 14,5 km/h (3 Bft)
20.05.2010 05:50 10,1 C 67 % 1026,3 hPa 0,0 mm 3,2 km/h (1 Bft) W 270 0 min 0 UV-I 0 W/m 9,7 km/h (2 Bft)
20.05.2010 06:00 10,1 C 67 % 1026,4 hPa 0,0 mm 1,6 km/h (1 Bft) W 270 0 min 0 UV-I 0 W/m 8,0 km/h (2 Bft)
20.05.2010 06:10 10,1 C 69 % 1026,4 hPa 0,0 mm 3,2 km/h (1 Bft) W 270 0 min 0 UV-I 0 W/m 9,7 km/h (2 Bft)
20.05.2010 06:20 9,9 C 70 % 1026,4 hPa 0,0 mm 3,2 km/h (1 Bft) W 270 0 min 0 UV-I 7 W/m 9,7 km/h (2 Bft)
20.05.2010 06:30 9,9 C 70 % 1026,5 hPa 0,0 mm 3,2 km/h (1 Bft) W 270 0 min 0 UV-I 5 W/m 11,3 km/h (2 Bft)
20.05.2010 06:40 9,8 C 70 % 1026,6 hPa 0,0 mm 1,6 km/h (1 Bft) W 270 0 min 0 UV-I 14 W/m 8,0 km/h (2 Bft)
20.05.2010 06:50 9,8 C 70 % 1026,7 hPa 0,0 mm 1,6 km/h (1 Bft) W 270 0 min 0 UV-I 14 W/m 9,7 km/h (2 Bft)
20.05.2010 07:00 9,8 C 70 % 1026,9 hPa 0,0 mm 1,6 km/h (1 Bft) W 270 0 min 0 UV-I 14 W/m 8,0 km/h (2 Bft)
20.05.2010 07:10 9,8 C 71 % 1026,9 hPa 0,0 mm 3,2 km/h (1 Bft) W 270 0 min 0 UV-I 12 W/m 14,5 km/h (3 Bft)
20.05.2010 07:20 9,8 C 74 % 1027,0 hPa 1,0 mm 1,6 km/h (1 Bft) W 270 0 min 0 UV-I 21 W/m 8,0 km/h (2 Bft)
20.05.2010 07:30 9,7 C 76 % 1027,0 hPa 0,0 mm 1,6 km/h (1 Bft) W-SW 247 0 min 0 UV-I 32 W/m 6,4 km/h (2 Bft)
20.05.2010 07:40 9,5 C 77 % 1027,1 hPa 0,5 mm 1,6 km/h (1 Bft) W-SW 247 0 min 0 UV-I 33 W/m 4,8 km/h (1 Bft)
20.05.2010 07:50 9,3 C 79 % 1027,2 hPa 0,0 mm 1,6 km/h (1 Bft) W 270 0 min 0 UV-I 39 W/m 9,7 km/h (2 Bft)
20.05.2010 08:00 9,1 C 80 % 1027,3 hPa 0,0 mm 1,6 km/h (1 Bft) W-SW 254 0 min 0 UV-I 40 W/m 4,8 km/h (1 Bft)
20.05.2010 08:10 9,0 C 81 % 1027,3 hPa 0,0 mm 0,0 km/h (0 Bft) W-SW 247 0 min 1 UV-I 81 W/m 4,8 km/h (1 Bft)
20.05.2010 08:20 8,9 C 82 % 1027,3 hPa 0,3 mm 1,6 km/h (1 Bft) W-SW 247 0 min 1 UV-I 81 W/m 4,8 km/h (1 Bft)
20.05.2010 08:30 8,8 C 83 % 1027,5 hPa 0,0 mm 0,0 km/h (0 Bft) W-SW 247 0 min 0 UV-I 51 W/m 4,8 km/h (1 Bft)
20.05.2010 08:40 8,8 C 84 % 1027,5 hPa 0,5 mm 1,6 km/h (1 Bft) W-SW 247 0 min 0 UV-I 42 W/m 6,4 km/h (2 Bft)
20.05.2010 08:50 8,8 C 84 % 1027,7 hPa 0,5 mm 1,6 km/h (1 Bft) W-SW 247 0 min 0 UV-I 42 W/m 4,8 km/h (1 Bft)
20.05.2010 09:00 8,7 C 85 % 1027,7 hPa 0,3 mm 0,0 km/h (0 Bft) W 270 0 min 0 UV-I 49 W/m 6,4 km/h (2 Bft)
20.05.2010 09:10 8,7 C 85 % 1027,9 hPa 1,0 mm 0,0 km/h (0 Bft) SW 225 0 min 0 UV-I 44 W/m 1,6 km/h (1 Bft)
20.05.2010 09:20 8,7 C 86 % 1027,9 hPa 1,0 mm 0,0 km/h (0 Bft) SW 225 0 min 0 UV-I 26 W/m 4,8 km/h (1 Bft)
20.05.2010 09:30 8,7 C 86 % 1027,8 hPa 0,5 mm 0,0 km/h (0 Bft) SW 225 0 min 0 UV-I 44 W/m 4,8 km/h (1 Bft)
20.05.2010 09:40 8,7 C 87 % 1027,8 hPa 0,0 mm 0,0 km/h (0 Bft) SW 225 0 min 1 UV-I 88 W/m 4,8 km/h (1 Bft)
20.05.2010 09:50 8,8 C 87 % 1027,8 hPa 0,0 mm 0,0 km/h (0 Bft) SW 225 0 min 1 UV-I 102 W/m 6,4 km/h (2 Bft)
20.05.2010 10:00 8,9 C 88 % 1027,8 hPa 0,0 mm 0,0 km/h (0 Bft) W-SW 247 0 min 1 UV-I 135 W/m 4,8 km/h (1 Bft)
20.05.2010 10:10 9,1 C 88 % 1027,8 hPa 0,0 mm 0,0 km/h (0 Bft) SW 225 0 min 1 UV-I 127 W/m 3,2 km/h (1 Bft)
20.05.2010 10:20 9,2 C 88 % 1028,0 hPa 0,0 mm 0,0 km/h (0 Bft) SW 225 0 min 1 UV-I 83 W/m 6,4 km/h (2 Bft)
20.05.2010 10:30 9,3 C 88 % 1028,0 hPa 0,0 mm 0,0 km/h (0 Bft) SW 225 0 min 1 UV-I 79 W/m 3,2 km/h (1 Bft)
20.05.2010 10:40 9,3 C 88 % 1028,0 hPa 0,0 mm 0,0 km/h (0 Bft) W-SW 247 0 min 1 UV-I 76 W/m 6,4 km/h (2 Bft)
20.05.2010 10:50 9,4 C 88 % 1028,1 hPa 0,0 mm 1,6 km/h (1 Bft) SW 225 0 min 1 UV-I 83 W/m 6,4 km/h (2 Bft)
20.05.2010 11:00 9,4 C 88 % 1028,1 hPa 0,0 mm 0,0 km/h (0 Bft) SW 225 0 min 1 UV-I 104 W/m 4,8 km/h (1 Bft)
20.05.2010 11:10 9,6 C 88 % 1028,2 hPa 0,0 mm 0,0 km/h (0 Bft) W-SW 247 0 min 1 UV-I 114 W/m 6,4 km/h (2 Bft)
20.05.2010 11:20 9,7 C 88 % 1028,2 hPa 0,0 mm 0,0 km/h (0 Bft) W-SW 247 0 min 1 UV-I 130 W/m 4,8 km/h (1 Bft)
20.05.2010 11:30 9,8 C 88 % 1028,2 hPa 0,0 mm 0,0 km/h (0 Bft) W-SW 247 0 min 2 UV-I 162 W/m 6,4 km/h (2 Bft)
20.05.2010 11:40 10,1 C 88 % 1028,2 hPa 0,0 mm 0,0 km/h (0 Bft) SW 225 0 min 2 UV-I 179 W/m 4,8 km/h (1 Bft)
20.05.2010 11:50 10,3 C 87 % 1028,2 hPa 0,0 mm 1,6 km/h (1 Bft) SW 225 0 min 2 UV-I 209 W/m 6,4 km/h (2 Bft)
20.05.2010 12:00 10,5 C 86 % 1028,2 hPa 0,0 mm 1,6 km/h (1 Bft) W-SW 247 0 min 2 UV-I 214 W/m 9,7 km/h (2 Bft)
20.05.2010 12:10 10,7 C 84 % 1028,2 hPa 0,0 mm 1,6 km/h (1 Bft) W 270 0 min 2 UV-I 178 W/m 6,4 km/h (2 Bft)
20.05.2010 12:20 10,8 C 82 % 1028,1 hPa 0,0 mm 3,2 km/h (1 Bft) W-SW 247 0 min 2 UV-I 163 W/m 9,7 km/h (2 Bft)
20.05.2010 12:30 11,0 C 80 % 1028,1 hPa 0,0 mm 4,8 km/h (1 Bft) W-SW 247 0 min 3 UV-I 283 W/m 9,7 km/h (2 Bft)
20.05.2010 12:40 11,4 C 78 % 1028,0 hPa 0,0 mm 1,6 km/h (1 Bft) W 270 0 min 3 UV-I 281 W/m 9,7 km/h (2 Bft)
20.05.2010 12:50 11,8 C 75 % 1028,1 hPa 0,0 mm 4,8 km/h (1 Bft) W-SW 247 0 min 3 UV-I 279 W/m 11,3 km/h (2 Bft)
20.05.2010 13:00 11,9 C 75 % 1028,1 hPa 0,0 mm 3,2 km/h (1 Bft) W 270 0 min 3 UV-I 255 W/m 6,4 km/h (2 Bft)
20.05.2010 13:10 12,0 C 75 % 1028,1 hPa 0,0 mm 1,6 km/h (1 Bft) W 270 0 min 2 UV-I 200 W/m 8,0 km/h (2 Bft)
20.05.2010 13:20 11,9 C 74 % 1028,1 hPa 0,0 mm 3,2 km/h (1 Bft) W-SW 247 0 min 2 UV-I 214 W/m 8,0 km/h (2 Bft)
20.05.2010 13:30 12,1 C 76 % 1028,0 hPa 0,0 mm 1,6 km/h (1 Bft) W 270 0 min 3 UV-I 315 W/m 14,5 km/h (3 Bft)
20.05.2010 13:40 12,4 C 76 % 1028,0 hPa 0,0 mm 1,6 km/h (1 Bft) W 270 0 min 3 UV-I 322 W/m 8,0 km/h (2 Bft)
20.05.2010 13:50 12,6 C 74 % 1028,0 hPa 0,0 mm 3,2 km/h (1 Bft) W-SW 247 0 min 3 UV-I 302 W/m 8,0 km/h (2 Bft)
20.05.2010 14:00 12,8 C 74 % 1028,0 hPa 0,0 mm 1,6 km/h (1 Bft) W 270 0 min 3 UV-I 357 W/m 8,0 km/h (2 Bft)
20.05.2010 14:10 13,2 C 72 % 1027,9 hPa 0,0 mm 1,6 km/h (1 Bft) SW 225 0 min 3 UV-I 359 W/m 11,3 km/h (2 Bft)
20.05.2010 14:20 13,3 C 72 % 1027,9 hPa 0,0 mm 4,8 km/h (1 Bft) W 270 0 min 3 UV-I 332 W/m 9,7 km/h (2 Bft)
20.05.2010 14:30 13,2 C 72 % 1027,9 hPa 0,0 mm 3,2 km/h (1 Bft) W 270 0 min 2 UV-I 225 W/m 9,7 km/h (2 Bft)
20.05.2010 14:40 13,1 C 74 % 1027,9 hPa 0,0 mm 1,6 km/h (1 Bft) W 270 0 min 2 UV-I 155 W/m 8,0 km/h (2 Bft)
20.05.2010 14:50 13,1 C 73 % 1027,9 hPa 0,0 mm 1,6 km/h (1 Bft) W-SW 247 0 min 2 UV-I 167 W/m 9,7 km/h (2 Bft)
20.05.2010 15:00 13,2 C 72 % 1027,8 hPa 0,0 mm 1,6 km/h (1 Bft) W 270 0 min 2 UV-I 162 W/m 9,7 km/h (2 Bft)
20.05.2010 15:10 13,2 C 73 % 1027,8 hPa 0,0 mm 0,0 km/h (0 Bft) W-SW 247 0 min 2 UV-I 155 W/m 3,2 km/h (1 Bft)
20.05.2010 15:20 13,3 C 74 % 1027,8 hPa 0,0 mm 1,6 km/h (1 Bft) W 270 0 min 2 UV-I 250 W/m 6,4 km/h (2 Bft)
20.05.2010 15:30 13,8 C 71 % 1027,8 hPa 0,0 mm 0,0 km/h (0 Bft) SW 225 0 min 3 UV-I 352 W/m 3,2 km/h (1 Bft)
20.05.2010 15:40 14,2 C 69 % 1027,8 hPa 0,0 mm 1,6 km/h (1 Bft) W-SW 247 0 min 3 UV-I 345 W/m 6,4 km/h (2 Bft)
20.05.2010 15:50 14,2 C 69 % 1027,8 hPa 0,0 mm 0,0 km/h (0 Bft) W 270 0 min 3 UV-I 360 W/m 1,6 km/h (1 Bft)
20.05.2010 16:00 14,8 C 66 % 1027,7 hPa 0,0 mm 0,0 km/h (0 Bft) W 262 0 min 2 UV-I 285 W/m 0,0 km/h (0 Bft)
20.05.2010 16:10 14,9 C 67 % 1027,7 hPa 0,0 mm 0,0 km/h (0 Bft) W 270 0 min 2 UV-I 306 W/m 3,2 km/h (1 Bft)
20.05.2010 16:20 14,9 C 70 % 1027,6 hPa 0,0 mm 0,0 km/h (0 Bft) W 270 0 min 2 UV-I 253 W/m 1,6 km/h (1 Bft)
20.05.2010 16:30 15,0 C 67 % 1027,6 hPa 0,0 mm 0,0 km/h (0 Bft) W 270 0 min 2 UV-I 258 W/m 1,6 km/h (1 Bft)
20.05.2010 16:40 15,2 C 67 % 1027,6 hPa 0,0 mm 0,0 km/h (0 Bft) W 270 0 min 2 UV-I 258 W/m 1,6 km/h (1 Bft)
20.05.2010 16:50 15,5 C 64 % 1027,6 hPa 0,0 mm 0,0 km/h (0 Bft) W 270 0 min 2 UV-I 243 W/m 1,6 km/h (1 Bft)
20.05.2010 17:00 15,6 C 67 % 1027,6 hPa 0,0 mm 0,0 km/h (0 Bft) W 270 0 min 2 UV-I 218 W/m 3,2 km/h (1 Bft)
20.05.2010 17:10 15,7 C 69 % 1027,5 hPa 0,0 mm 0,0 km/h (0 Bft) W 270 0 min 2 UV-I 236 W/m 1,6 km/h (1 Bft)
20.05.2010 17:20 15,8 C 68 % 1027,4 hPa 0,0 mm 0,0 km/h (0 Bft) W 270 0 min 2 UV-I 236 W/m 4,8 km/h (1 Bft)
20.05.2010 17:30 15,7 C 66 % 1027,4 hPa 0,0 mm 0,0 km/h (0 Bft) W 270 0 min 1 UV-I 186 W/m 3,2 km/h (1 Bft)
20.05.2010 17:40 15,7 C 65 % 1027,4 hPa 0,0 mm 0,0 km/h (0 Bft) SO 135 0 min 1 UV-I 179 W/m 4,8 km/h (1 Bft)
20.05.2010 17:50 15,6 C 68 % 1027,3 hPa 0,0 mm 0,0 km/h (0 Bft) SO 135 0 min 1 UV-I 192 W/m 1,6 km/h (1 Bft)
20.05.2010 18:00 15,7 C 65 % 1027,3 hPa 0,0 mm 0,0 km/h (0 Bft) SO 135 0 min 1 UV-I 178 W/m 1,6 km/h (1 Bft)
20.05.2010 18:10 15,7 C 64 % 1027,3 hPa 0,0 mm 0,0 km/h (0 Bft) SO 135 0 min 1 UV-I 127 W/m 3,2 km/h (1 Bft)
20.05.2010 18:20 15,6 C 66 % 1027,2 hPa 0,0 mm 0,0 km/h (0 Bft) SO 135 0 min 1 UV-I 128 W/m 1,6 km/h (1 Bft)
20.05.2010 18:30 15,7 C 61 % 1027,1 hPa 0,0 mm 0,0 km/h (0 Bft) SO 135 0 min 1 UV-I 142 W/m 3,2 km/h (1 Bft)
20.05.2010 18:40 15,7 C 60 % 1027,0 hPa 0,0 mm 0,0 km/h (0 Bft) O-SO 112 0 min 1 UV-I 156 W/m 4,8 km/h (1 Bft)
20.05.2010 18:50 15,8 C 60 % 1027,1 hPa 0,0 mm 0,0 km/h (0 Bft) N 0 0 min 1 UV-I 111 W/m 0,0 km/h (0 Bft)
20.05.2010 19:00 15,7 C 57 % 1027,1 hPa 0,0 mm 0,0 km/h (0 Bft) O-SO 112 0 min 1 UV-I 62 W/m 3,2 km/h (1 Bft)
20.05.2010 19:10 15,6 C 61 % 1027,1 hPa 0,0 mm 0,0 km/h (0 Bft) O-SO 112 0 min 0 UV-I 56 W/m 1,6 km/h (1 Bft)
20.05.2010 19:20 15,6 C 62 % 1027,1 hPa 0,0 mm 0,0 km/h (0 Bft) N 0 0 min 0 UV-I 56 W/m 0,0 km/h (0 Bft)
20.05.2010 19:30 15,7 C 63 % 1027,1 hPa 0,0 mm 0,0 km/h (0 Bft) N 0 0 min 0 UV-I 42 W/m 0,0 km/h (0 Bft)
20.05.2010 19:40 15,7 C 62 % 1027,1 hPa 0,0 mm 0,0 km/h (0 Bft) N 0 0 min 0 UV-I 37 W/m 0,0 km/h (0 Bft)
20.05.2010 19:50 15,7 C 63 % 1027,1 hPa 0,0 mm 0,0 km/h (0 Bft) N 0 0 min 0 UV-I 33 W/m 0,0 km/h (0 Bft)
20.05.2010 20:00 15,7 C 63 % 1027,1 hPa 0,0 mm 0,0 km/h (0 Bft) N 0 0 min 0 UV-I 35 W/m 0,0 km/h (0 Bft)
20.05.2010 20:10 15,6 C 64 % 1027,2 hPa 0,0 mm 0,0 km/h (0 Bft) N 0 0 min 0 UV-I 37 W/m 0,0 km/h (0 Bft)
20.05.2010 20:20 15,4 C 66 % 1027,1 hPa 0,0 mm 0,0 km/h (0 Bft) N 0 0 min 0 UV-I 37 W/m 0,0 km/h (0 Bft)
20.05.2010 20:30 15,4 C 68 % 1027,1 hPa 0,0 mm 0,0 km/h (0 Bft) N 0 0 min 0 UV-I 39 W/m 0,0 km/h (0 Bft)
20.05.2010 20:40 15,3 C 67 % 1027,2 hPa 0,0 mm 0,0 km/h (0 Bft) N 0 10 min 0 UV-I 44 W/m 0,0 km/h (0 Bft)
20.05.2010 20:50 15,1 C 68 % 1027,3 hPa 0,0 mm 0,0 km/h (0 Bft) N 0 10 min 0 UV-I 39 W/m 0,0 km/h (0 Bft)
20.05.2010 21:00 15,0 C 68 % 1027,3 hPa 0,0 mm 0,0 km/h (0 Bft) N 0 10 min 0 UV-I 30 W/m 0,0 km/h (0 Bft)
20.05.2010 21:10 15,0 C 68 % 1027,4 hPa 0,0 mm 0,0 km/h (0 Bft) N 0 0 min 0 UV-I 21 W/m 0,0 km/h (0 Bft)
20.05.2010 21:20 14,8 C 69 % 1027,4 hPa 0,0 mm 0,0 km/h (0 Bft) N 0 0 min 0 UV-I 9 W/m 0,0 km/h (0 Bft)
20.05.2010 21:30 14,6 C 70 % 1027,6 hPa 0,0 mm 0,0 km/h (0 Bft) N 0 0 min 0 UV-I 0 W/m 0,0 km/h (0 Bft)
20.05.2010 21:40 14,4 C 71 % 1027,7 hPa 0,0 mm 0,0 km/h (0 Bft) N 0 0 min 0 UV-I 0 W/m 0,0 km/h (0 Bft)
20.05.2010 21:50 14,2 C 72 % 1027,8 hPa 0,0 mm 0,0 km/h (0 Bft) N 0 0 min 0 UV-I 0 W/m 0,0 km/h (0 Bft)
20.05.2010 22:00 14,0 C 72 % 1027,9 hPa 0,0 mm 0,0 km/h (0 Bft) N 0 0 min 0 UV-I 0 W/m 0,0 km/h (0 Bft)
20.05.2010 22:10 13,8 C 72 % 1027,8 hPa 0,0 mm 0,0 km/h (0 Bft) N 0 0 min 0 UV-I 0 W/m 0,0 km/h (0 Bft)
20.05.2010 22:20 13,6 C 72 % 1028,0 hPa 0,0 mm 0,0 km/h (0 Bft) N 0 0 min 0 UV-I 0 W/m 0,0 km/h (0 Bft)
20.05.2010 22:30 13,3 C 73 % 1028,1 hPa 0,0 mm 0,0 km/h (0 Bft) N 0 0 min 0 UV-I 0 W/m 0,0 km/h (0 Bft)
20.05.2010 22:40 13,0 C 73 % 1028,1 hPa 0,0 mm 0,0 km/h (0 Bft) N 0 0 min 0 UV-I 0 W/m 0,0 km/h (0 Bft)
20.05.2010 22:50 12,7 C 74 % 1028,1 hPa 0,0 mm 0,0 km/h (0 Bft) N 0 0 min 0 UV-I 0 W/m 0,0 km/h (0 Bft)
20.05.2010 23:00 12,4 C 75 % 1028,1 hPa 0,0 mm 0,0 km/h (0 Bft) O-SO 112 0 min 0 UV-I 0 W/m 1,6 km/h (1 Bft)
20.05.2010 23:10 12,1 C 75 % 1028,1 hPa 0,0 mm 0,0 km/h (0 Bft) N 0 0 min 0 UV-I 0 W/m 0,0 km/h (0 Bft)
20.05.2010 23:20 11,8 C 75 % 1028,2 hPa 0,0 mm 0,0 km/h (0 Bft) N 0 0 min 0 UV-I 0 W/m 0,0 km/h (0 Bft)
20.05.2010 23:30 11,6 C 75 % 1028,3 hPa 0,0 mm 0,0 km/h (0 Bft) N 0 0 min 0 UV-I 0 W/m 0,0 km/h (0 Bft)
20.05.2010 23:40 11,2 C 76 % 1028,3 hPa 0,0 mm 0,0 km/h (0 Bft) N 0 0 min 0 UV-I 0 W/m 0,0 km/h (0 Bft)
20.05.2010 23:50 10,9 C 76 % 1028,5 hPa 0,0 mm 0,0 km/h (0 Bft) N 0 0 min 0 UV-I 0 W/m 0,0 km/h (0 Bft)
_ Min-Zeit 08:50 19:00 00:00 - 08:10 - - - - - 16:00
Minimum _ 8,7 C 57 % 1025,0 hPa - 0,0 km/h (0 Bft) - - - - - 0,0 km/h (0 Bft)
_ Max-Zeit 17:20 10:00 23:50 07:20 02:10 - - 20:40 14:00 15:50 02:10
Maximum _ 15,9 C 88 % 1028,5 hPa 1,0 mm 4,8 km/h
W (1 Bft)
- - 10 min 3 UV-I 360 W/m 20,9 km/h
NW (4 Bft)
Durchschnitt _ 12,0 C 71 % 1027,2 hPa #5,6 mm 1,4 km/h (1 Bft) W - #30 min. 2 UV-I 141 W/m 6,1 km/h (2 Bft)